Simultaneous Nadir Overpasses (SNOs) Predictions

Prediction of SNOs between AURA and NPP Satellite Orbit:

Table of predicted SNOs for the next 14.0 days since TLE Epoch: 2/8/2013
Index Date (AURA) Time (AURA) Lat,Lon (AURA) SZA (AURA ) Date (NPP) Time (NPP) Lat,Lon (NPP) SZA (NPP ) Distance(km) Time Diff (sec)
1 02/09/2013 13:04:21 -79.83, 63.27 73.22 02/09/2013 13:04:15 -79.84, 63.30 73.22 0.65 6
2 02/09/2013 13:53:42 80.02,-127.61 106.49 02/09/2013 13:54:53 80.03,-127.49 106.42 2.40 71
3 02/12/2013 04:31:32 79.64, 10.06 106.22 02/12/2013 04:30:34 79.64, 9.92 106.29 3.02 58
4 02/12/2013 05:20:52 -79.90, 179.65 74.18 02/12/2013 05:21:11 -79.90, 179.71 74.21 1.18 19
5 02/14/2013 20:48:02 79.74, 126.61 105.19 02/14/2013 20:47:29 79.73, 126.51 105.23 2.15 33
6 02/14/2013 21:37:23 -79.95, -64.04 75.17 02/14/2013 21:38:07 -79.96, -63.94 75.22 2.14 44
7 02/17/2013 13:04:32 79.82,-116.90 104.14 02/17/2013 13:04:24 79.81,-116.94 104.15 0.86 8
8 02/17/2013 13:53:55 -79.96, 51.92 76.11 02/17/2013 13:55:05 -79.96, 51.77 76.13 3.00 70
9 02/20/2013 04:31:41 -79.67,-169.75 76.58 02/20/2013 04:30:41 -79.67,-169.78 76.53 0.73 60




NCC Satellite Simultaneous Nadir Overpasses (SNOs) Prediction Service
